Regional Weather Roundup
Issued by NWS

Home | Current Version | Previous Version | Graphics & Text | Print | Product List | Glossary On
Versions: 1 2 3 4 5 6 7 8 9 10 11 12 13 14 15 16 17 18 19 20 21 22 23 24 25 26 27 28 29 30 31 32 33 34 35 36 37 38 39 40 41 42 43 44 45 46 47 48 49 50
000
ASUS43 KBIS 221802
RWRND

NORTH DAKOTA REGIONAL WEATHER ROUNDUP
NATIONAL WEATHER SERVICE BISMARCK ND
100 PM CDT TUE AUG 22 2017

NOTE: "FAIR" INDICATES FEW OR NO CLOUDS BELOW 12,000 FEET WITH NO
SIGNIFICANT WEATHER AND/OR OBSTRUCTIONS TO VISIBILITY.


NDZ001>003-009>011-017-221900-
NORTHWEST NORTH DAKOTA

CITY           SKY/WX    TMP DP  RH WIND       PRES   REMARKS
WILLISTON      SUNNY     75  37  25 SW9       30.18F
6HR MIN TEMP:  43; 6HR MAX TEMP:  76;

MINOT          SUNNY     75  38  26 NW13G23   30.16F
MINOT AFB      SUNNY     74  36  25 NW18      30.14F
$$

NDZ018>021-031>035-040>046-221900-
SOUTHWEST NORTH DAKOTA

CITY           SKY/WX    TMP DP  RH WIND       PRES   REMARKS
BISMARCK       SUNNY     75  42  30 NW13      30.20S
6HR MIN TEMP:  46; 6HR MAX TEMP:  76;

DICKINSON      SUNNY     73  38  27 CALM      30.19F
GARRISON         N/A     72  38  29 W12G26    30.18F
6HR MIN TEMP:  41; 6HR MAX TEMP:  73;

HETTINGER ARPT SUNNY     75  39  27 CALM      30.22F
$$

NDZ004>008-012>016-024-026-027-054-221900-
NORTHEAST NORTH DAKOTA

CITY           SKY/WX    TMP DP  RH WIND       PRES   REMARKS
GRAND FORKS    MOSUNNY   75  43  31 NW21G35   30.05F
GRND FRKS AFB  SUNNY     74  40  30 N20G29    30.07F
DEVILS LAKE    SUNNY     71  40  32 NW17G25   30.13S
$$

NDZ022-023-025-028>030-036>039-047>053-221900-
SOUTHEAST NORTH DAKOTA

CITY           SKY/WX    TMP DP  RH WIND       PRES   REMARKS
FARGO          SUNNY     75  42  30 NW20G29   30.08F
6HR MIN TEMP:  50; 6HR MAX TEMP:  75;

JAMESTOWN      SUNNY     71  46  40 NW13G24   30.14F
$$





USA.gov is the U.S. government's official web portal to all federal, state and local government web resources and services.